EHI
0 0 0 0 0 0 0 0 0 0 0 0 0 0 0 0 0 2 6 11 16 30 40 31 14 6 3 4 8 15 21 24 21 16 12 9 5 2 1 0 0 0 0 0 0 0 0 0 0
0 0 0 0 0 0 0 0 0 0 0 0 0 0 0 0 1 3 6 11 17 28 36 30 17 7 3 4 9 15 20 21 19 15 11 7 4 2 1 0 0 0 0 0 0 0 0 0 0
0 0 0 0 0 0 0 0 0 0 0 0 0 0 0 0 1 3 6 9 16 24 30 33 23 10 4 4 8 15 20 20 19 15 10 6 4 2 0 0 0 0 0 0 0 0 0 0 0
0 0 0 0 0 0 0 0 0 0 0 0 0 0 0 1 2 4 6 7 11 16 25 33 27 12 5 4 6 12 18 20 19 15 11 7 4 2 0 0 0 0 0 0 0 0 0 0 0
0 0 0 0 0 0 0 0 0 0 0 0 0 0 1 4 5 6 6 6 7 8 19 31 27 14 7 6 7 10 14 15 15 12 9 6 3 1 0 0 0 0 0 0 0 1 1 1 1
0 0 0 0 0 0 0 0 0 0 0 0 0 0 2 7 10 10 8 5 4 4 14 27 25 13 8 6 7 8 9 10 9 8 5 3 1 0 0 0 0 0 0 0 0 1 2 2 2
0 0 0 0 0 0 0 0 0 0 0 0 0 0 4 13 20 19 14 8 5 4 10 20 19 11 7 6 6 7 7 7 7 4 2 1 0 0 0 0 0 0 1 0 0 1 3 3 3
0 0 0 0 0 0 0 0 0 0 0 0 0 2 12 29 39 37 29 20 13 9 9 13 13 10 6 5 6 7 7 7 7 4 2 1 0 0 0 0 0 0 0 0 0 1 2 3 3
0 0 0 0 0 0 0 0 0 0 0 0 2 8 26 50 60 57 50 37 27 19 13 13 14 11 7 6 7 8 8 9 8 7 6 4 2 1 0 2 3 2 0 0 0 0 1 1 2
0 0 0 0 0 0 0 0 0 0 0 1 4 14 34 56 67 67 61 52 42 29 21 18 18 14 10 10 11 10 12 14 14 13 15 13 10 7 4 6 9 5 1 0 0 0 0 1 2
0 0 0 0 0 0 0 0 0 1 0 1 7 19 35 49 58 62 62 59 52 41 30 27 26 23 20 17 15 15 18 22 23 25 28 28 24 19 14 15 15 10 5 4 4 2 2 3 4
0 0 0 0 0 0 0 0 1 2 3 5 12 23 33 41 47 55 61 60 55 48 39 35 35 34 31 28 24 21 21 24 27 31 36 38 37 32 26 25 21 15 12 11 9 6 5 5 5
0 0 0 0 0 0 0 0 1 3 5 11 19 27 34 40 45 53 59 58 54 50 44 37 35 37 39 38 36 29 24 23 25 29 33 37 39 39 35 33 28 20 17 16 13 9 8 8 7
0 0 0 0 0 0 0 0 1 2 5 14 25 33 37 43 49 54 58 59 55 50 43 34 30 34 39 43 42 35 28 25 25 28 29 31 35 38 39 37 32 26 21 19 15 12 11 9 8
0 0 0 0 0 0 0 1 2 2 6 17 29 37 42 46 48 50 54 58 55 48 42 34 28 30 36 41 41 37 33 29 29 29 28 28 30 33 34 32 30 28 25 22 17 14 13 9 6
0 0 0 0 0 0 0 1 3 5 10 21 30 37 42 45 45 44 45 47 46 42 39 33 26 24 28 34 39 39 34 29 27 26 26 26 25 25 24 22 22 26 27 22 16 14 13 9 6
0 0 0 0 0 0 0 2 6 9 14 22 27 31 36 38 37 35 32 32 32 33 33 28 21 16 18 23 30 32 26 21 18 19 21 21 20 18 15 13 15 20 24 20 14 14 14 11 7
0 0 0 0 0 0 1 3 7 10 14 18 20 20 22 24 22 20 19 20 22 23 23 20 15 13 13 15 17 18 17 13 10 12 14 14 13 12 10 10 12 15 17 15 12 11 12 8 5
0 0 0 0 0 1 2 4 6 8 11 12 12 10 10 10 9 8 10 13 14 15 13 11 10 11 12 12 12 13 14 12 9 7 7 7 7 6 7 8 10 11 11 8 7 8 8 5 3
0 0 0 0 0 1 2 4 5 6 6 7 6 5 4 3 2 3 6 7 8 9 8 7 6 7 8 10 11 12 13 12 10 7 7 6 4 4 6 7 7 8 6 4 4 6 6 3 2
0 0 0 0 0 0 1 4 5 5 4 4 4 3 1 0 0 1 3 4 5 5 5 5 5 4 5 6 6 7 8 8 7 8 8 5 3 3 5 5 3 3 4 4 5 5 3 2 2
0 0 0 0 0 0 0 3 5 5 3 4 4 3 1 0 0 0 1 1 2 2 2 2 3 3 3 3 2 2 2 2 3 4 5 3 2 1 2 2 1 1 2 4 5 5 3 1 1
0 0 0 0 0 0 0 2 3 4 4 4 3 2 0 0 0 0 0 0 0 0 0 0 1 1 1 1 0 0 0 0 0 1 1 1 1 0 0 0 0 1 3 4 5 5 4 2 1
0 0 0 0 0 0 0 1 3 3 4 4 3 1 0 0 1 1 2 2 1 0 0 0 0 0 1 0 0 0 0 0 0 0 0 1 1 1 0 0 0 2 4 4 4 4 4 3 3
0 0 0 0 0 0 0 2 4 4 3 3 1 0 0 0 1 2 3 3 2 0 0 0 0 0 0 0 0 0 0 1 0 0 0 1 1 1 0 0 0 1 3 3 4 4 4 4 5
0 0 0 0 0 0 0 2 4 3 2 1 0 0 0 0 1 2 2 2 1 0 0 0 0 0 0 0 0 0 0 0 0 0 0 0 0 0 0 0 0 0 1 1 3 4 4 5 5
0 0 0 0 0 0 0 1 1 1 1 0 0 0 0 0 0 1 1 1 0 0 0 0 0 0 0 0 0 0 0 0 0 0 0 0 0 0 0 0 0 0 0 0 1 2 3 4 5
0 0 0 0 0 0 0 0 0 0 0 0 0 0 0 0 0 0 0 0 0 0 0 0 0 0 0 0 0 0 0 0 0 0 0 0 0 0 0 0 0 0 0 0 0 1 1 2 3
0 0 0 0 0 0 0 0 0 0 0 0 0 0 1 0 0 0 0 0 0 0 0 0 0 0 0 0 0 0 0 0 0 0 0 0 0 0 0 0 0 0 0 0 0 0 0 0 1
0 0 0 0 0 0 0 0 0 0 0 0 0 0 1 0 0 0 0 0 0 0 0 0 0 0 0 0 0 0 0 0 0 0 0 0 0 0 0 0 0 0 0 0 0 0 0 0 0
Wind_Speed
16 13 8 5 7 7 2 5 5 5 3 3 2 2 4 5 6 6 5 12 16 19 20 20 17 16 15 14 13 13 13 13 13 13 13 12 12 11 11 10 9 8 8 7 7 8 8 8 9
14 11 7 6 7 2 6 6 7 7 5 2 0 2 3 3 5 5 8 13 17 19 19 18 19 17 16 15 14 14 13 13 13 13 12 12 11 11 10 9 8 8 7 7 7 7 8 8 8
13 10 6 6 5 5 6 7 6 4 2 2 1 1 3 5 4 4 9 16 18 17 17 18 19 17 16 15 14 13 13 13 13 12 12 11 11 10 10 9 8 8 7 7 7 7 7 7 7
9 7 7 9 5 3 5 6 5 4 2 1 1 2 5 6 3 7 14 17 18 17 17 19 19 17 16 15 15 14 13 13 12 12 11 11 10 10 9 9 8 8 7 7 7 7 7 7 7
7 7 9 8 3 3 3 6 5 5 3 1 1 2 6 6 7 12 15 16 17 16 16 19 18 17 16 15 14 14 13 12 11 11 10 10 9 9 9 8 8 8 7 7 7 7 7 7 7
7 7 10 7 2 2 3 5 5 5 3 1 0 2 7 8 10 14 15 15 15 15 15 18 17 16 15 14 14 13 12 12 11 11 10 10 9 9 8 8 8 8 8 8 7 7 8 8 8
9 8 11 10 7 3 4 7 6 5 3 2 1 2 9 10 11 13 13 13 13 14 13 15 16 15 15 13 13 13 12 11 11 10 10 10 9 9 9 9 9 9 9 9 9 9 9 9 9
7 8 12 10 8 4 5 6 5 6 3 3 1 1 6 12 13 14 13 12 12 12 12 13 13 13 13 13 14 12 12 11 11 10 10 10 10 10 10 10 11 11 10 10 10 11 11 11 11
7 9 12 10 7 6 6 7 5 4 1 2 3 5 7 16 16 15 13 12 11 11 10 11 12 11 11 11 12 13 12 11 11 11 12 11 11 12 11 14 11 12 12 12 12 12 12 12 13
9 12 12 7 8 9 9 8 7 4 2 1 3 6 10 15 15 15 14 14 13 13 12 9 10 10 9 7 8 8 9 10 10 9 10 10 9 7 9 6 9 12 13 13 14 13 13 13 11
9 12 10 9 9 10 10 8 6 7 4 5 4 3 9 13 13 13 13 13 12 12 11 10 9 8 8 6 6 5 5 6 9 10 10 8 7 7 8 6 8 11 13 12 12 13 11 11 8
11 11 11 11 9 10 10 7 4 5 8 8 4 3 8 11 11 11 11 11 11 11 12 10 10 8 7 6 5 6 6 5 6 8 10 8 6 7 7 6 7 7 6 8 8 7 10 10 10
13 12 10 10 10 9 7 4 2 6 8 6 5 6 6 7 7 7 9 9 10 10 10 9 9 9 8 7 5 6 6 6 7 7 8 9 7 7 7 6 6 8 7 7 8 8 8 9 10
8 10 10 9 7 6 5 1 1 6 6 6 7 7 6 6 6 6 6 6 7 7 7 7 8 7 7 7 6 6 6 6 7 7 8 9 8 7 7 7 7 8 7 7 7 9 8 8 8
8 11 9 5 5 5 6 4 5 6 4 7 8 8 9 8 6 5 3 3 4 4 4 4 6 6 6 6 6 5 6 6 6 6 7 8 8 8 7 7 7 7 7 7 7 8 7 8 8
9 11 8 4 1 4 11 3 8 4 5 7 8 9 9 9 9 7 6 5 4 3 2 1 1 2 3 4 4 4 5 5 5 5 5 6 7 7 6 6 7 7 6 6 6 7 7 7 7
8 6 3 6 3 2 4 5 7 5 6 7 8 8 9 9 9 8 6 5 5 4 3 2 2 2 2 3 3 4 3 5 5 5 5 6 7 7 6 6 6 7 6 6 7 5 6 6 6
1 2 2 3 5 2 5 8 7 6 6 7 7 8 8 8 8 7 6 5 5 4 3 2 1 1 2 2 3 3 4 4 4 4 5 7 6 7 7 6 6 7 6 6 6 5 5 5 5
4 4 0 5 4 2 6 7 7 5 6 6 6 7 7 7 7 6 5 5 5 5 4 3 2 2 2 2 3 2 3 3 3 4 5 5 5 5 6 6 6 6 6 6 6 6 6 6 5
6 5 2 5 4 2 5 6 7 5 6 6 6 6 6 6 6 6 5 5 5 5 4 3 2 3 3 2 3 3 3 3 3 3 3 4 4 4 4 5 5 5 5 6 6 6 5 5 5
6 5 2 2 5 6 6 8 8 7 6 6 5 5 5 5 5 5 5 5 4 4 4 3 4 3 3 4 3 2 2 3 2 2 2 3 3 3 3 3 4 4 5 5 5 5 8 6 6
4 2 4 4 7 4 6 3 10 7 7 6 6 5 5 4 4 4 4 4 4 3 3 3 3 3 4 4 4 5 4 4 3 2 2 3 2 3 3 3 3 4 5 4 6 6 6 8 7
4 2 4 6 8 6 5 7 9 6 6 7 6 4 4 3 3 2 2 2 2 1 2 2 2 3 4 4 4 5 4 4 3 2 2 3 2 2 2 3 3 4 4 5 6 5 7 7 8
1 4 5 8 9 6 1 6 6 5 4 5 5 4 3 2 1 0 1 2 2 3 3 4 4 5 5 5 5 5 5 5 5 5 4 3 2 2 2 2 3 4 4 5 5 6 7 7 8
4 7 6 5 5 0 3 4 7 6 4 3 2 2 1 1 1 2 3 4 5 6 6 6 7 7 7 7 7 7 7 7 7 7 5 5 4 3 2 3 3 3 4 5 5 6 6 7 8
4 7 7 7 6 3 3 1 8 5 4 2 1 1 2 3 3 4 5 6 7 8 8 9 8 9 9 9 9 8 9 9 8 7 8 7 6 5 4 5 5 5 5 5 5 6 6 6 7
3 3 6 8 7 7 1 7 8 4 2 1 1 2 3 4 5 6 7 8 10 10 10 10 10 10 10 11 10 10 11 10 11 10 10 9 7 7 7 7 7 7 6 6 5 5 6 6 7
4 3 4 5 7 7 2 2 4 3 3 3 3 4 5 6 7 8 9 10 10 10 10 11 11 11 12 12 11 11 11 12 12 12 12 11 11 10 10 9 9 9 8 8 7 7 6 6 7
2 1 4 4 5 7 6 4 6 4 5 6 6 5 6 8 10 10 11 11 11 12 12 12 12 13 13 13 13 13 13 14 14 13 13 13 12 12 12 12 11 11 11 10 9 9 8 8 8
5 6 5 5 4 5 7 4 6 3 3 5 6 7 8 10 11 12 12 12 12 13 14 14 14 15 15 15 15 15 14 15 15 15 14 14 14 14 14 14 14 14 13 12 12 12 11 10 10
Wind_Direction
161 169 186 208 235 229 27 40 3 358 5 7 341 288 317 326 333 18 87 150 150 147 144 153 158 161 162 158 155 153 153 154 155 156 157 157 157 157 157 157 156 152 147 140 136 132 127 124 122
165 167 197 228 259 283 64 34 16 10 18 6 157 268 304 23 36 77 128 146 151 147 149 156 156 163 163 160 158 157 157 158 158 159 160 160 161 162 163 162 160 159 155 150 146 142 138 134 132
164 189 233 242 264 341 20 26 11 15 15 317 347 348 359 29 69 108 131 150 151 149 152 149 159 164 165 163 162 162 162 162 163 163 165 166 167 168 168 167 166 166 163 161 158 155 150 146 145
174 208 230 250 277 5 351 354 350 341 14 330 279 103 90 53 73 118 140 154 152 154 155 149 163 165 166 166 166 167 167 166 167 168 170 172 174 177 178 176 176 175 174 173 171 168 163 160 159
225 243 244 247 280 9 350 350 334 331 354 9 278 87 96 84 100 129 147 156 157 158 154 151 165 166 168 170 171 171 172 172 172 173 176 179 182 185 188 187 186 186 186 186 184 182 177 176 175
228 242 260 277 329 357 6 358 323 332 354 42 230 115 97 115 131 143 150 159 160 159 157 148 163 169 171 173 175 175 176 177 179 181 184 188 192 196 199 199 199 199 200 201 201 198 194 193 193
262 264 274 287 298 305 8 342 331 337 335 14 348 108 115 137 139 144 149 163 160 162 159 154 166 172 175 177 180 180 182 185 187 190 193 197 202 207 210 211 212 212 212 212 212 211 209 206 205
271 272 263 265 280 302 3 337 334 327 14 46 330 346 125 146 148 147 151 160 160 165 165 165 170 173 179 181 184 188 190 193 196 199 203 207 213 216 218 222 213 220 223 222 221 221 220 217 215
250 253 262 273 288 308 342 327 340 340 73 96 42 22 88 137 149 149 151 159 165 171 173 176 171 177 187 190 175 189 196 200 205 206 209 216 224 219 209 221 208 218 229 231 230 229 229 227 221
232 254 266 299 302 307 317 318 333 292 235 112 84 85 119 145 156 160 164 167 172 176 179 185 178 182 191 196 178 203 206 199 214 217 210 216 226 238 240 199 208 229 236 238 236 236 235 233 229
234 258 280 282 287 299 301 313 326 303 319 5 344 137 151 160 164 170 172 172 172 177 183 184 185 192 197 197 200 209 217 210 216 222 222 228 233 230 234 225 208 221 229 234 226 225 230 230 233
244 256 268 277 291 292 299 303 318 356 5 358 354 133 157 170 172 173 170 172 171 180 185 185 185 190 205 216 214 224 228 224 230 221 227 225 226 235 237 237 238 229 227 229 238 234 232 236 237
242 257 262 267 274 281 281 283 327 29 16 25 78 120 143 154 159 163 162 167 169 178 184 187 192 193 199 212 231 236 244 246 242 242 231 235 236 236 237 239 244 246 244 236 235 241 243 240 239
264 268 267 267 266 253 232 163 49 25 23 59 80 93 104 111 127 136 148 158 169 177 183 190 202 204 212 217 224 243 252 253 259 252 249 243 243 241 242 241 242 246 247 249 248 246 244 244 243
265 261 242 229 235 210 201 134 43 25 51 75 76 78 84 86 91 97 109 134 152 162 164 191 211 218 227 238 241 251 261 261 263 265 259 253 253 249 246 248 244 244 245 245 247 253 251 245 240
239 237 217 135 212 195 236 164 54 38 75 79 79 82 83 76 72 67 68 75 82 106 126 179 241 249 250 255 260 259 266 274 271 271 265 258 260 258 258 256 250 245 242 240 241 245 245 247 248
214 227 198 124 67 191 233 86 63 53 84 85 82 82 83 79 68 61 60 67 65 60 53 43 10 339 306 278 261 265 270 267 269 268 267 262 255 254 253 256 256 248 243 241 244 234 246 245 248
272 256 194 101 73 120 111 98 84 69 79 85 87 86 83 75 63 58 57 60 61 58 50 36 40 6 320 286 260 257 256 261 270 279 280 275 261 255 251 248 248 251 246 241 238 241 239 254 253
301 282 266 89 103 96 106 106 94 91 91 91 89 90 87 79 73 67 65 64 65 63 61 53 30 18 336 308 295 289 279 273 273 270 278 275 272 268 256 255 241 244 245 244 236 234 229 236 239
249 253 183 128 142 170 134 117 105 91 82 77 87 91 93 94 86 75 72 72 69 63 50 41 27 16 335 333 305 292 298 291 296 311 317 316 309 292 264 258 253 238 237 232 234 232 243 233 217
246 265 282 157 163 185 185 162 142 123 113 107 101 96 91 88 83 78 69 63 62 60 40 25 9 355 338 324 308 304 278 271 292 316 317 326 320 315 307 282 272 259 249 238 236 229 231 236 221
271 339 288 212 222 205 235 250 136 140 134 121 113 103 94 87 84 79 76 66 59 54 42 25 359 344 335 319 328 327 322 324 334 312 315 304 301 310 308 297 289 279 270 263 247 228 232 237 233
349 341 266 251 258 261 214 271 122 150 138 123 118 110 100 94 88 81 63 44 27 6 353 343 328 321 323 320 316 306 316 321 319 308 297 289 296 298 308 303 292 282 276 269 266 255 238 235 241
222 229 223 237 252 247 71 286 116 107 93 112 119 119 116 119 119 188 291 299 301 301 303 305 304 301 300 298 301 298 303 303 305 298 297 287 287 290 310 308 304 291 282 273 262 257 244 248 248
252 275 263 247 243 126 106 275 74 79 79 78 99 111 132 207 272 284 292 301 303 300 299 297 296 296 295 293 290 286 285 283 276 281 285 283 283 273 266 278 274 285 287 279 270 259 261 251 245
321 300 308 310 317 330 172 87 86 79 88 98 105 306 287 283 287 297 301 302 302 302 299 295 294 293 293 290 287 282 277 275 280 277 286 284 280 281 278 263 259 260 263 269 267 266 258 254 252
296 322 338 290 284 285 130 114 118 120 119 162 265 279 291 298 301 302 306 310 311 311 308 304 301 296 292 290 287 279 274 276 282 281 270 272 271 270 261 256 251 249 248 251 254 261 264 260 253
356 334 276 298 318 305 307 114 98 88 20 352 327 315 309 305 306 310 313 316 317 314 310 307 301 298 295 291 287 286 283 277 272 271 275 275 274 270 266 259 256 250 245 240 240 247 241 249 251
360 359 330 311 322 313 320 64 66 30 3 339 334 330 321 317 318 319 320 319 316 314 313 311 306 302 298 293 290 287 285 282 277 270 267 266 265 266 262 256 254 252 249 244 239 245 244 239 245
37 14 345 327 344 311 303 74 91 32 347 327 325 324 323 321 319 320 321 321 318 316 315 311 309 305 302 298 294 289 286 283 279 276 274 272 268 263 260 259 256 252 247 243 240 241 242 241 240